Indian Springs, NV

9:03 AM PDT on April 26, 2017 (GMT -0700)
Indian Springs Air Force Auxiliary

Weather History for KINS - November, 2013

Change the Weather History Date:

Monday, November 4, 2013

  Actual Average (KDRA) Record (KDRA)
Temperature  
Mean Temperature 50 °F -  
Max Temperature 59 °F 64 °F 85 °F (1988)
Min Temperature 39 °F 41 °F 31 °F (2003)
Degree Days  
Heating Degree Days 15    
Moisture  
Dew Point 23 °F    
Average Humidity 32    
Maximum Humidity 54    
Minimum Humidity 20    
Precipitation  
Precipitation 0.00 in - - ()
Sea Level Pressure  
Sea Level Pressure 29.90 in    
Wind  
Wind Speed 5 mph (NNE)    
Max Wind Speed 16 mph    
Max Gust Speed 22 mph    
Visibility 6 miles    
Events      
Averages and records for this station are not official NWS values.
T = Trace of Precipitation, MM = Missing Value Source: NWS Daily Summary

Daily Weather History Graph

Daily Weather History Graph

Search for Another Location

Airport or City:

Trip Planner

Search our weather history database for the weather conditions in past years. The results will help you decide how hot, cold, wet, or windy it might be!

Date:

Astronomy

Nov. 04, 2013 Rise Set
Actual Time 6:09 AM PST 4:42 PM PST
Civil Twilight 5:42 AM PST 5:09 PM PST
Nautical Twilight 5:11 AM PST 5:40 PM PST
Astronomical Twilight 4:41 AM PST 6:10 PM PST
Moon 7:23 AM PST (11/4) 5:53 PM PST (11/4)
Length of Visible Light 11h 26m
Length of Day
10h 33m
New Moon, 2% of the Moon is Illuminated
Nov 4
New Moon
Nov 9
First Quarter
Nov 17
Full
Nov 25
Last Quarter
Dec 2
New

Hourly Weather History & Observations

Time (PST) Temp. Windchill Dew Point Humidity Pressure Visibility Wind Dir Wind Speed Gust Speed Precip Events Conditions
1:21 AM 46.4 °F - 19.4 °F 34% 29.76 in 10.0 mi Variable 2.3 mph - N/A   Partly Cloudy
1:54 AM 45.9 °F - 21.2 °F 38% 29.84 in 10.0 mi Calm Calm - N/A   Mostly Cloudy
2:56 AM 47.5 °F - 19.0 °F 32% 29.81 in 10.0 mi West 3.5 mph - N/A   Mostly Cloudy
3:55 AM 48.2 °F - 16.0 °F 28% 29.83 in 10.0 mi West 4.6 mph - N/A   Mostly Cloudy
4:58 AM 47.1 °F - 16.0 °F 29% 29.84 in 10.0 mi SE 4.6 mph - N/A   Partly Cloudy
5:58 AM 48.0 °F - 16.7 °F 29% 29.86 in 10.0 mi SSE 2.3 mph - N/A   Clear
6:58 AM 51.1 °F - 13.8 °F 23% 29.87 in 10.0 mi Calm Calm - N/A   Partly Cloudy
7:58 AM 51.3 °F - 14.9 °F 24% 29.88 in 10.0 mi NNW 2.3 mph - N/A   Scattered Clouds
8:58 AM 52.7 °F - 14.4 °F 22% 29.90 in 10.0 mi NNE 3.5 mph - N/A   Overcast
9:58 AM 54.3 °F - 13.1 °F 20% 29.91 in 10.0 mi Variable 3.5 mph - N/A   Mostly Cloudy
10:58 AM 55.6 °F - 14.2 °F 20% 29.91 in 10.0 mi NNE 5.8 mph - N/A   Overcast
11:58 AM 56.3 °F - 15.1 °F 20% 29.90 in 10.0 mi NNE 4.6 mph - N/A   Mostly Cloudy
12:38 PM 59.0 °F - 17.6 °F 20% 29.89 in 2.5 mi Variable 3.5 mph - N/A   Haze
12:43 PM 57.2 °F - 17.6 °F 21% 29.89 in 1.8 mi NE 2.3 mph - N/A   Haze
12:48 PM 57.2 °F - 19.4 °F 23% 29.89 in 2.0 mi Variable 2.3 mph - N/A   Haze
12:58 PM 57.9 °F - 19.6 °F 23% 29.88 in 2.5 mi Variable 2.3 mph - N/A   Haze
1:03 PM 59.0 °F - 21.2 °F 23% 29.89 in 4.0 mi ENE 4.6 mph - N/A   Haze
1:13 PM 59.0 °F - 23.0 °F 25% 29.89 in 1.2 mi NE 4.6 mph - N/A   Haze
1:23 PM 59.0 °F - 24.8 °F 27% 29.89 in 2.0 mi NNE 5.8 mph - N/A   Haze
1:28 PM 59.0 °F - 26.6 °F 29% 29.89 in 1.5 mi North 8.1 mph - N/A   Haze
1:53 PM 59.0 °F - 28.4 °F 31% 29.88 in 2.5 mi NNE 12.7 mph 21.9 mph N/A   Haze
1:58 PM 59.0 °F - 27.9 °F 31% 29.88 in 2.5 mi NNE 16.1 mph - N/A   Haze
2:03 PM 59.0 °F - 28.4 °F 31% 29.88 in 3.0 mi North 15.0 mph - N/A   Haze
2:58 PM 57.6 °F - 27.5 °F 32% 29.89 in 3.0 mi North 6.9 mph - N/A   Haze
3:03 PM 57.2 °F - 28.4 °F 33% 29.89 in 2.5 mi Variable 5.8 mph - N/A   Haze
3:18 PM 57.2 °F - 26.6 °F 31% 29.89 in 1.8 mi NNE 10.4 mph - N/A   Haze
3:38 PM 57.2 °F - 28.4 °F 33% 29.90 in 3.0 mi NNE 6.9 mph - N/A   Haze
3:48 PM 57.2 °F - 28.4 °F 33% 29.90 in 2.0 mi NE 6.9 mph - N/A   Haze
3:53 PM 57.2 °F - 28.4 °F 33% 29.90 in 1.5 mi North 12.7 mph - N/A   Haze
3:58 PM 57.2 °F - 28.6 °F 34% 29.90 in 2.0 mi NNE 9.2 mph - N/A   Haze
4:03 PM 57.2 °F - 28.4 °F 33% 29.90 in 3.0 mi NNE 9.2 mph - N/A   Haze
4:53 PM 53.6 °F - 28.4 °F 38% 29.92 in 2.5 mi NE 4.6 mph - N/A   Haze
4:58 PM 53.6 °F - 26.6 °F 35% 29.92 in 1.2 mi ENE 4.6 mph - N/A   Haze
5:55 PM 51.8 °F - 26.6 °F 38% 29.95 in 10.0 mi SE 5.8 mph - N/A   Clear
5:58 PM 52.0 °F - 27.0 °F 38% 29.95 in 10.0 mi SE 5.8 mph - N/A   Unknown
6:58 PM 50.5 °F - 27.3 °F 41% 29.96 in 10.0 mi SSE 6.9 mph - N/A   Clear
7:58 PM 44.8 °F 41.6 °F 24.3 °F 45% 29.98 in 10.0 mi West 5.8 mph - N/A   Clear
8:57 PM 43.2 °F 40.5 °F 24.3 °F 47% 30.00 in 10.0 mi WNW 4.6 mph - N/A   Clear
9:58 PM 42.8 °F - 24.4 °F 48% 30.04 in 10.0 mi SW 2.3 mph - N/A   Clear
10:57 PM 41.4 °F 37.6 °F 25.7 °F 54% 30.00 in 10.0 mi West 5.8 mph - N/A   Clear
11:58 PM 39.9 °F 34.5 °F 22.8 °F 50% 30.08 in 4.0 mi WSW 8.1 mph - N/A   Haze